Grimsby

*Note: All times are displayed in the local standard time of the station location.
**Rain - Equipment is designed to accurately record liquid precipitation; under conditions when precipitation is not in liquid form, the data displayed may not properly reflect rainfall values.

Date Max Temp
(°C)
Min Temp
(°C)
Avg Temp
(°C)
Rain (mm) Avg RH (%)
Sat, Feb 17, 2018 -1.9 -7.2 -3.8 0.0 89.3
Fri, Feb 16, 2018 3.9 -6.5 -1.1 0.0 89.5
Thu, Feb 15, 2018 7.0 2.8 5.1 0.4 100.0
Wed, Feb 14, 2018 4.5 -5.2 1.7 4.0 90.4
Tue, Feb 13, 2018 -2.9 -20.0 -9.9 0.0 89.7
Mon, Feb 12, 2018 -2.5 -14.8 -6.6 0.0 89.7
Sun, Feb 11, 2018 0.1 -4.4 -2.7 0.2 99.9
DateTime Avg Temp (°C) Rain (mm) RH (%)
Sun, Feb 18, 2018 04:00 -3.3 0.0 100.0
Sun, Feb 18, 2018 03:00 -3.3 0.0 100.0
Sun, Feb 18, 2018 02:00 -2.9 0.0 100.0
Sun, Feb 18, 2018 01:00 -2.5 0.0 100.0
Sun, Feb 18, 2018 00:00 -2.4 0.0 99.8
Sat, Feb 17, 2018 23:00 -2.2 0.0 95.8
Sat, Feb 17, 2018 22:00 -2.4 0.0 91.8
Sat, Feb 17, 2018 21:00 -2.3 0.0 90.0
Sat, Feb 17, 2018 20:00 -2.4 0.0 89.0
Sat, Feb 17, 2018 19:00 -2.3 0.0 85.3
Sat, Feb 17, 2018 18:00 -2.3 0.0 78.3
Sat, Feb 17, 2018 17:00 -2.2 0.0 78.3
Sat, Feb 17, 2018 16:00 -2.2 0.0 79.0
Sat, Feb 17, 2018 15:00 -2.1 0.0 79.3
Sat, Feb 17, 2018 14:00 -2.0 0.0 79.5
Sat, Feb 17, 2018 13:00 -2.0 0.0 79.3
Sat, Feb 17, 2018 12:00 -2.1 0.0 78.3
Sat, Feb 17, 2018 11:00 -2.6 0.0 83.5
Sat, Feb 17, 2018 10:00 -3.6 0.0 89.5
Sat, Feb 17, 2018 09:00 -4.7 0.0 93.0
Sat, Feb 17, 2018 08:00 -6.0 0.0 96.3
Sat, Feb 17, 2018 07:00 -6.3 0.0 97.8
Sat, Feb 17, 2018 06:00 -6.3 0.0 99.8
Sat, Feb 17, 2018 05:00 -6.4 0.0 100.0
Sat, Feb 17, 2018 04:00 -6.5 0.0 98.0
Sat, Feb 17, 2018 03:00 -6.9 0.0 96.0
Sat, Feb 17, 2018 02:00 -6.6 0.0 93.5
Sat, Feb 17, 2018 01:00 -6.5 0.0 92.8
Sat, Feb 17, 2018 00:00 -6.4 0.0 92.0
Fri, Feb 16, 2018 23:00 -6.2 0.0 91.8
Fri, Feb 16, 2018 22:00 -6.1 0.0 89.5
Fri, Feb 16, 2018 21:00 -5.9 0.0 84.8
Fri, Feb 16, 2018 20:00 -5.1 0.0 79.8
Fri, Feb 16, 2018 19:00 -4.5 0.0 76.0
Fri, Feb 16, 2018 18:00 -3.9 0.0 72.8
Fri, Feb 16, 2018 17:00 -2.9 0.0 72.8
Fri, Feb 16, 2018 16:00 -1.9 0.0 74.3
Fri, Feb 16, 2018 15:00 -1.0 0.0 76.5
Fri, Feb 16, 2018 14:00 -0.2 0.0 74.3
Fri, Feb 16, 2018 13:00 0.2 0.0 78.3
Fri, Feb 16, 2018 12:00 0.4 0.0 87.3
Fri, Feb 16, 2018 11:00 0.5 0.0 98.0
Fri, Feb 16, 2018 10:00 0.4 0.0 100.0
Fri, Feb 16, 2018 09:00 0.3 0.0 100.0
Fri, Feb 16, 2018 08:00 0.1 0.0 100.0
Fri, Feb 16, 2018 07:00 0.6 0.0 100.0
Fri, Feb 16, 2018 06:00 1.4 0.0 100.0
Fri, Feb 16, 2018 05:00 2.0 0.0 100.0


asterix Register now to access more data! asterix